K0EG-WX Weather Reports


Display with metric or nautical units.
time (UTC)temp
F
wind
direction
speed
MPH
gust
MPH
rain 1hr
in
rain 24hr
in
rain mn
in
humidity
%
barometer
mb
20260510204017 75 177 1.0 2.0 0.00 0.08 0.01 33 1021.1
20260510203017 77 31 1.0 4.0 0.00 0.08 0.01 33 1021.0
20260510202017 78 3 2.0 5.0 0.00 0.08 0.01 28 1020.9
20260510201037 77 2 1.0 4.0 0.00 0.08 0.01 31 1021.0
20260510200016 77 11 1.0 4.0 0.00 0.08 0.01 32 1020.9
20260510195017 77 352 2.0 10.0 0.00 0.08 0.01 29 1021.1
20260510194018 77 358 3.0 6.0 0.00 0.08 0.01 30 1021.0
20260510193017 76 13 2.0 4.0 0.00 0.08 0.01 33 1021.0
20260510192017 74 10 1.0 5.0 0.00 0.08 0.01 35 1021.1
20260510191017 71 347 2.0 5.0 0.00 0.08 0.01 37 1021.1
20260510190017 70 345 2.0 5.0 0.00 0.08 0.01 39 1021.0
20260510185022 70 356 1.0 4.0 0.00 0.08 0.01 45 1020.9
20260510184017 72 351 1.0 5.0 0.00 0.08 0.01 38 1020.9
20260510183042 73 20 1.0 5.0 0.00 0.08 0.01 42 1020.8
20260510182017 73 352 3.0 8.0 0.00 0.08 0.01 35 1020.7
20260510181017 71 358 2.0 6.0 0.00 0.08 0.01 43 1020.7
20260510180017 70 347 2.0 5.0 0.00 0.08 0.01 43 1020.8
20260510175057 68 343 1.0 5.0 0.00 0.08 0.01 46 1020.9
20260510174017 68 346 2.0 4.0 0.00 0.08 0.01 50 1021.1
20260510173017 67 345 2.0 3.0 0.00 0.08 0.01 49 1021.1
20260510172017 67 19 1.0 7.0 0.00 0.08 0.01 48 1021.2
20260510171015 69 25 1.0 4.0 0.00 0.08 0.01 48 1021.2
20260510170017 69 28 1.0 5.0 0.00 0.08 0.01 48 1021.2
20260510165017 65 2 1.0 5.0 0.00 0.08 0.01 51 1021.3
20260510164017 64 13 1.0 5.0 0.00 0.08 0.01 51 1021.3
20260510163017 65 345 2.0 4.0 0.00 0.08 0.01 53 1021.2
20260510162017 65 19 1.0 3.0 0.00 0.08 0.01 56 1021.2
20260510161017 66 349 1.0 6.0 0.00 0.08 0.01 51 1021.3
20260510160017 67 2 2.0 8.0 0.00 0.08 0.01 48 1021.5
20260510155015 66 4 2.0 5.0 0.00 0.08 0.01 54 1021.5
20260510154017 63 357 2.0 4.0 0.00 0.08 0.01 59 1021.4
20260510153017 62 353 1.0 5.0 0.00 0.08 0.01 63 1021.2
20260510152016 63 6 1.0 5.0 0.00 0.08 0.01 62 1021.0
20260510151037 64 350 2.0 4.0 0.00 0.08 0.01 61 1020.7
20260510150017 64 350 2.0 9.0 0.00 0.08 0.01 53 1020.6
20260510145017 65 346 2.0 6.0 0.00 0.08 0.01 50 1020.5
20260510144057 65 13 1.0 4.0 0.00 0.08 0.01 56 1020.5
20260510143017 64 351 1.0 5.0 0.00 0.08 0.01 55 1020.3
20260510142036 63 345 2.0 6.0 0.00 0.08 0.01 54 1020.2
20260510141016 63 349 2.0 6.0 0.00 0.08 0.01 56 1019.9
20260510140017 62 343 2.0 6.0 0.00 0.08 0.01 60 1019.5
20260510135017 60 348 2.0 8.0 0.00 0.08 0.01 62 1019.6
20260510134017 59 341 1.0 5.0 0.00 0.08 0.01 67 1019.7
20260510133017 58 347 1.0 4.0 0.00 0.08 0.01 73 1019.6
20260510132037 56 349 1.0 9.0 0.00 0.08 0.01 74 1019.6
20260510131017 55 349 2.0 5.0 0.00 0.08 0.01 77 1019.5
20260510130016 54 352 1.0 4.0 0.00 0.08 0.01 79 1019.5
20260510125037 53 346 1.0 5.0 0.00 0.08 0.01 79 1019.3
20260510124017 53 346 1.0 5.0 0.00 0.08 0.01 80 1019.2
20260510123016 52 359 1.0 4.0 0.00 0.08 0.01 81 1018.9
20260510122017 52 345 1.0 3.0 0.00 0.08 0.01 82 1018.7
20260510121017 52 345 2.0 4.0 0.00 0.08 0.01 83 1018.6
20260510120016 52 348 2.0 3.0 0.00 0.08 0.01 84 1018.5
20260510115021 52 350 1.0 3.0 0.00 0.08 0.01 84 1018.3
20260510114137 52 343 1.0 4.0 0.00 0.08 0.01 86 1018.1
20260510113016 52 347 1.0 3.0 0.00 0.08 0.01 86 1017.8
20260510112037 52 353 1.0 4.0 0.00 0.08 0.01 87 1017.5
20260510111016 52 351 2.0 4.0 0.00 0.08 0.01 88 1017.4
20260510110016 53 344 1.0 2.0 0.00 0.08 0.01 89 1017.2
20260510105021 53 334 1.0 3.0 0.00 0.08 0.01 89 1017.0
20260510104017 53 352 1.0 3.0 0.00 0.08 0.01 89 1016.7
20260510103016 53 354 1.0 3.0 0.00 0.08 0.01 89 1016.7
20260510102016 53 352 1.0 4.0 0.00 0.08 0.01 89 1016.5
20260510101016 54 334 1.0 3.0 0.00 0.08 0.01 90 1016.3
20260510100017 54 353 1.0 4.0 0.00 0.08 0.01 90 1016.2
20260510095057 54 355 1.0 3.0 0.00 0.08 0.01 90 1016.1
20260510094016 54 346 1.0 3.0 0.00 0.08 0.01 90 1016.1
20260510093021 55 350 1.0 2.0 0.00 0.08 0.01 90 1016.0
20260510092016 55 0.0 0.0 0.00 0.08 0.01 90 1016.0
20260510091017 55 0.0 0.0 0.00 0.08 0.01 90 1015.9
20260510090016 55 0.0 0.0 0.00 0.08 0.01 90 1015.7
20260510085016 56 0.0 0.0 0.00 0.08 0.01 90 1015.5
20260510084016 56 350 0.0 1.0 0.00 0.08 0.01 90 1015.3
20260510083016 56 350 0.0 1.0 0.00 0.08 0.01 90 1015.1
20260510082036 56 351 0.0 2.0 0.00 0.08 0.01 89 1014.9
20260510081016 57 0.0 0.0 0.00 0.08 0.01 89 1014.7
20260510080016 57 0.0 0.0 0.00 0.08 0.01 89 1014.7
20260510075016 57 352 0.0 1.0 0.00 0.09 0.01 89 1014.4
20260510074016 57 355 0.0 3.0 0.00 0.09 0.01 89 1014.3
20260510073016 58 355 0.0 2.0 0.00 0.09 0.01 89 1014.3
20260510072016 58 345 1.0 5.0 0.00 0.09 0.01 89 1014.2
20260510071036 58 352 1.0 4.0 0.00 0.09 0.01 89 1014.2
20260510070016 58 351 1.0 3.0 0.00 0.09 0.01 90 1014.2
20260510065016 58 347 1.0 3.0 0.00 0.09 0.01 89 1014.2
20260510064016 59 346 1.0 5.0 0.00 0.09 0.01 89 1014.3
20260510063036 59 347 2.0 3.0 0.00 0.09 0.01 89 1014.2
20260510062016 59 356 1.0 3.0 0.00 0.09 0.01 89 1013.9
20260510061016 59 0 1.0 5.0 0.01 0.09 0.01 89 1014.0
20260510060016 59 351 1.0 5.0 0.01 0.09 0.01 89 1014.2
20260510055016 59 357 2.0 6.0 0.01 0.09 0.01 89 1014.0
20260510054016 60 343 3.0 5.0 0.01 0.09 0.01 89 1014.0
20260510053036 60 341 2.0 5.0 0.01 0.09 0.01 89 1013.1
20260510052016 60 344 1.0 4.0 0.03 0.09 0.01 89 1013.1
20260510051016 60 2 0.0 3.0 0.03 0.08 0.00 89 1013.0
20260510050016 60 345 2.0 4.0 0.04 0.08 0.00 89 1013.4
20260510045016 60 192 2.0 4.0 0.04 0.08 0.08 89 1012.6
20260510044016 60 192 3.0 4.0 0.04 0.08 0.08 88 1012.4
20260510043016 60 176 1.0 4.0 0.04 0.08 0.08 88 1013.0
20260510042016 60 37 0.0 1.0 0.03 0.06 0.06 87 1013.1
20260510041016 60 2 1.0 3.0 0.03 0.05 0.05 86 1013.6
20260510040016 61 349 1.0 4.0 0.03 0.04 0.04 85 1013.5
20260510035016 61 330 2.0 6.0 0.03 0.04 0.04 85 1012.8
20260510034016 61 352 2.0 8.0 0.03 0.04 0.04 83 1013.0
20260510033016 62 356 2.0 7.0 0.03 0.05 0.04 82 1013.2
20260510032016 63 351 2.0 8.0 0.02 0.04 0.03 81 1013.2
20260510031021 64 353 2.0 8.0 0.01 0.03 0.02 78 1013.2
20260510030021 66 359 4.0 12.0 0.00 0.03 0.01 72 1013.0
20260510025016 66 331 4.0 11.0 0.00 0.04 0.01 67 1012.4
20260510024016 66 0.0 0.0 0.00 0.06 0.01 64 1010.9
20260510023036 66 0.0 0.0 0.00 0.09 0.01 62 1010.6
20260510022056 66 0.0 0.0 0.00 0.11 0.01 62 1010.5
20260510021016 66 0.0 0.0 0.00 0.15 0.01 61 1010.3
20260510020016 67 0.0 0.0 0.00 0.18 0.01 60 1010.2
20260510015036 67 0.0 0.0 0.00 0.21 0.01 59 1010.0
20260510014036 68 0.0 0.0 0.00 0.25 0.01 58 1009.8
20260510013016 68 0.0 0.0 0.00 0.27 0.01 55 1009.6
20260510012036 69 0.0 0.0 0.00 0.28 0.01 54 1009.6
20260510011016 71 0.0 0.0 0.00 0.28 0.01 54 1009.7
20260510010016 72 0.0 0.0 0.00 0.28 0.01 53 1009.6
20260510005036 73 0.0 0.0 0.00 0.28 0.01 52 1009.5
20260510004036 74 0.0 0.0 0.00 0.28 0.01 50 1009.4
20260510003016 74 0.0 0.0 0.00 0.28 0.01 49 1009.3
20260510002016 75 0.0 0.0 0.00 0.28 0.01 47 1009.3
20260510001016 75 0.0 1.0 0.00 0.29 0.01 45 1009.2
20260510000016 76 166 0.0 1.0 0.00 0.29 0.01 43 1009.2
20260509235035 77 168 0.0 1.0 0.00 0.29 0.01 41 1009.2
20260509234016 77 181 0.0 1.0 0.00 0.29 0.01 40 1009.2
20260509233016 78 140 0.0 3.0 0.00 0.29 0.01 39 1009.2
20260509232016 79 175 0.0 4.0 0.00 0.29 0.01 39 1009.2
20260509231015 79 120 0.0 3.0 0.00 0.29 0.01 38 1009.2
20260509230016 80 209 0.0 3.0 0.00 0.29 0.01 38 1009.1
20260509225015 82 156 1.0 4.0 0.00 0.29 0.01 37 1009.1
20260509224015 83 194 1.0 4.0 0.00 0.29 0.01 36 1009.1
20260509223016 83 207 0.0 2.0 0.00 0.29 0.01 36 1009.2
20260509222015 83 168 1.0 7.0 0.00 0.29 0.01 37 1009.1
20260509221055 84 168 1.0 7.0 0.00 0.29 0.01 35 1009.1
20260509220015 85 123 1.0 5.0 0.00 0.29 0.01 35 1009.1
20260509215015 85 145 1.0 5.0 0.00 0.29 0.01 34 1009.1
20260509214035 85 206 1.0 4.0 0.00 0.29 0.01 34 1009.2
20260509213015 85 303 1.0 5.0 0.00 0.29 0.01 34 1009.2
20260509212016 85 169 2.0 5.0 0.00 0.29 0.01 34 1009.3
20260509211035 85 153 1.0 8.0 0.00 0.29 0.01 35 1009.4
20260509210016 86 218 1.0 6.0 0.00 0.29 0.01 36 1009.5
20260509205015 88 172 2.0 5.0 0.00 0.29 0.01 33 1009.4